{"data":{"norad_id":60305,"epoch":"2026-05-25T05:11:44.301408Z","epoch_age_seconds":59562,"freshness":"FRESH","line1":"1 60305U 24133E   26145.21648497  .00000722  00000+0  10818-4 0  9998","line2":"2 60305  53.1582 128.9634 0000949  88.7463 271.3664 15.69711349105754","mean_motion":15.69711349,"eccentricity":9.49e-5,"inclination_deg":53.1582,"raan_deg":128.9634,"arg_perigee_deg":88.7463,"mean_anomaly_deg":271.3664,"bstar":1.0818e-5,"rev_number":10575,"period_min":91.736611378733,"perigee_km":359.08346719735,"apogee_km":360.36231300449,"semimajor_km":6737.8598901009,"source":"CELESTRAK","updated_at":"2026-05-25T13:38:19.228611Z"}}